THORAD AGENA D DEB

Satellite information

Favourite Embed

Satellite Type and Status

DEBRISIN ORBIT

Key statistics

Satellite THORAD AGENA D DEB at a glance.

Uptime

20338

Days in orbit

Revolutions

≈ 14.0

Per day

Orbit

SSO

Sun Synchronous Orbit

Inclination

99.7

Latest

Satellite identification and parameters

Extended collection of information and parameters for THORAD AGENA D DEB.

Object identification

Identified? True

Debris? True

Object name: THORAD AGENA D DEB

International designator: 1970-025KB

Object number (NORAD): 5185

Object ID (CCSDS): 5185

Country: UNITED STATES OF AMERICA (US)

Current information (Y/N): Y

RCS size: SMALL

Orbital parameters

Period: 103.059 minutes

Inclination: 99.6518 deg

SMA: 7281.458 km

Apoapsis: 948.146 km

Periapsis: 858.501 km

RAAN: 45.534 deg

Eccentricy: 0.0061557

Argument of periapsis: 9.2154 deg

Mean anomaly: 351.0121 deg

Mean motion: 13.97253506 rev/day

Mean motion (dot): 0.00003439 rev/day2

B* drag term: 0.0024489705 1/REarth

Two-line elements (TLE)

Creation date: Dec. 12, 2025, 10:14 a.m.

Reference frame: TEME

Reference center: EARTH

Epoch: Dec. 12, 2025, 3:10 a.m. UTC

TLE line 0: 0 THORAD AGENA D DEB

TLE line 1: 1 05185U 70025KB 25346.13262506 .00003439 00000-0 24490-2 0 9998

TLE line 2: 2 05185 99.6518 45.5340 0061557 9.2154 351.0121 13.97253506775738

Live tracking on map

Real-time ground track for satellite THORAD AGENA D DEB.

In-orbit conjunctions

A list of the most updated potential collisions computed for object THORAD AGENA D DEB.

Target Orbit TCA Probability of collision Miss distance Type
COSMOS 1275 DEB LEO 2024-11-18 23:53:28 0.0002277602 84.0 (m) DEBRIS
COSMOS 1275 DEB LEO 2024-11-11 12:52:58 0.0006228862 331.0 (m) DEBRIS

Associated space launch

Meteorological research and development satellite

THORAD AGENA D DEB was lifted into orbit during the mission ‘Thorad SLV-2G Agena D | Nimbus 4’, on board a Thorad SLV-2G Agena D space rocket.

The launch took place on April 8, 1970, 8:17 a.m. from Space Launch Complex 2E.

For more information about the launch, click the button.

Launch to space Thorad SLV-2G Agena D | Nimbus 4
Thorad SLV-2G Agena D | Nimbus 4

Agency: N/A

Status: Launch Successful

Launch date: April 8, 1970, 8:17 a.m. UTC

Rocket: Thorad SLV-2G Agena D

Launch pad: Space Launch Complex 2E

Location: Vandenberg SFB, CA, USA

...

Latest news about this satellite

There are no fresh news available about this satellite. Check back as we update our databases every day.


Newsletter sign-up

Weekly statistics, charts and insights to help you stay on top of the space industry.